This is the latest recevied weather packets stored in our database for station/object OK2ZAW-19. If no packets are shown the sender has not sent any weather packets the latest 10 day(s).
| Time | Temp. | Humidity | Pressure | Rain* | Wind** | Luminosity | Snow |
|---|---|---|---|---|---|---|---|
| 1777480910 | 12.78° C | 24% | 1024.6 hPa | - | - | 337 W/m² | - |
| 1777480599 | 13.33° C | 24% | 1024.6 hPa | - | - | 337 W/m² | - |
| 1777480288 | 13.33° C | 24% | 1024.6 hPa | - | - | 337 W/m² | - |
| 1777479977 | 13.33° C | 24% | 1024.6 hPa | - | - | 337 W/m² | - |
| 1777479356 | 13.33° C | 23% | 1024.4 hPa | - | - | 337 W/m² | - |
| 1777479045 | 13.89° C | 24% | 1024.6 hPa | - | - | 337 W/m² | - |
| 1777478734 | 13.89° C | 23% | 1024.5 hPa | - | - | 337 W/m² | - |
| 1777478113 | 13.89° C | 23% | 1024.3 hPa | - | - | 337 W/m² | - |
| 1777477802 | 14.44° C | 23% | 1024.3 hPa | - | - | 337 W/m² | - |
| 1777477491 | 14.44° C | 22% | 1024.2 hPa | - | - | 337 W/m² | - |
| 1777477180 | 14.44° C | 23% | 1024.1 hPa | - | - | 337 W/m² | - |
| 1777476869 | 15° C | 23% | 1024 hPa | - | - | 337 W/m² | - |
| 1777476558 | 15.56° C | 23% | 1024.2 hPa | - | - | 337 W/m² | - |
| 1777476247 | 15.56° C | 23% | 1024.1 hPa | - | - | 337 W/m² | - |
| 1777475936 | 15.56° C | 24% | 1024.1 hPa | - | - | 337 W/m² | - |
| 1777475625 | 14.44° C | 23% | 1024 hPa | - | - | 335 W/m² | - |
| 1777475314 | 15° C | 23% | 1024 hPa | - | - | 337 W/m² | - |
| 1777475003 | 15° C | 23% | 1024 hPa | - | - | 337 W/m² | - |
| 1777474692 | 15.56° C | 23% | 1024.2 hPa | - | - | 337 W/m² | - |
| 1777474381 | 15° C | 22% | 1024.1 hPa | - | - | 338 W/m² | - |
| 1777474070 | 15.56° C | 24% | 1024.1 hPa | - | - | 337 W/m² | - |
| 1777473759 | 15° C | 23% | 1024.1 hPa | - | - | 337 W/m² | - |
| 1777473448 | 15° C | 23% | 1024 hPa | - | - | 337 W/m² | - |
| 1777473137 | 15° C | 24% | 1023.9 hPa | - | - | 337 W/m² | - |
| 1777472826 | 15° C | 24% | 1023.9 hPa | - | - | 337 W/m² | - |
* Rain since midnight (hover to see other rain measurements)
** Current wind speed in m/s (hover to see current wind gust speed)